Location: Tucson
(32.2217°N, 110.9265°W)
Time: 19:00:30
(UTC-07:00)

A-11 Canister half - Pass Details

Date: 02 November 2021
Orbit: 1516 x 1684 km, 47.2° (Epoch: 28 November)

Event Time Altitude Azimuth Distance (km) Brightness Sun altitude
Rises 22:27:54 0° 307° (NW) 4,878 12.0 -61.7°
Reaches altitude 10° 22:31:05 10° 306° (NW) 3,870 11.4 -62.2°
Enters shadow 22:32:08 14° 306° (NW) 3,538 11.1 -62.4°
